Home   Weather   Charleston   Past weeks

Flag for USA Past Weather in Charleston, South Carolina, USA — Yesterday and Last 2 Weeks

Now
71 °F

Broken clouds.


Feels Like: 73 °F
Forecast: 64 / 75 °F
Wind: 9 mph from Northeast

Location: Charleston Air Force Base Reporting Station

Current Time: Apr 24, 2017 at 7:05:21 pm

Latest Report: Apr 24, 2017 at 5:56 pm


Visibility: 10 mi

Pressure: 29.58 "Hg

Humidity: 76%

Dew Point: 63 °F

Location of CharlestonLocation

Past Weather in Charleston — Graph

°F

Charleston Temperature Yesterday

Maximum temperature yesterday: 82 °F (at 11:56 am)
Minimum temperature yesterday: 70 °F (at 1:56 am)
Average temperature yesterday: 75 °F

High & Low Weather Summary for the Past Weeks

 TemperatureHumidityPressure
High85 °F (Apr 18, 1:56 pm)100% (Apr 15, 4:56 am)30.37 "Hg (Apr 15, 4:56 am)
Low51 °F (Apr 10, 2:56 am)37% (Apr 15, 2:56 pm)29.58 "Hg (Apr 24, 5:56 pm)
Average70 °F74%30.13 "Hg
* Reported Apr 9 5:56 pm — Apr 24 5:56 pm, Charleston, Weather by CustomWeather, © 2017

Note: Actual official high and low records may vary slightly from our data, if they occured in-between our weather recording intervals... More about our weather records

Advertising

Charleston Weather History for the Previous 24 Hours

Scroll right to see more
 ConditionsComfort  
Time TempWeatherWind HumidityBarometerVisibility
5:56 pm
Mon, Apr 24
71 °FBroken clouds.9 mph76%29.58 "Hg10 mi
5:24 pm70 °FPartly sunny.9 mph79%29.59 "Hg10 mi
4:56 pm71 °FPartly sunny.8 mph81%29.59 "Hg10 mi
4:11 pm73 °FThundershowers. Broken clouds.6 mph79%29.60 "Hg7 mi
4:01 pm71 °FLight rain. Broken clouds.6 mph81%29.60 "Hg7 mi
2:56 pm71 °FMostly cloudy.5 mph78%29.62 "Hg10 mi
2:35 pm72 °FBroken clouds.7 mph76%29.63 "Hg10 mi
2:18 pm71 °FThundershowers. Broken clouds.7 mph76%29.64 "Hg10 mi
2:02 pm72 °FBroken clouds.5 mph73%29.64 "Hg10 mi
1:56 pm72 °FBroken clouds.3 mph73%29.64 "Hg10 mi
12:56 pm78 °FThundershowers. Broken clouds.10 mph60%29.64 "Hg10 mi
11:56 am76 °FBroken clouds.10 mph77%29.66 "Hg10 mi
10:56 am70 °FPartly sunny.7 mph81%29.68 "Hg10 mi
10:19 am68 °FFog.7 mph87%29.69 "Hg5 mi
10:04 am66 °FHeavy rain. Fog.12 mph90%29.69 "Hg4 mi
9:41 am68 °FThunderstorms. Fog.17 mph87%29.70 "Hg1 mi
8:56 am69 °FThundershowers. Mostly cloudy.8 mph93%29.68 "Hg10 mi
8:36 am68 °FThunderstorms. Fog.12 mph96%29.68 "Hg1 mi
8:10 am68 °FHeavy rain. Fog.14 mph93%29.68 "Hg1 mi
8:04 am69 °FHeavy rain. Fog.17 mph93%29.68 "Hg1 mi
7:28 am70 °FThundershowers. Mostly cloudy.8 mph93%29.68 "Hg10 mi
6:56 am70 °FMostly cloudy.8 mph90%29.68 "Hg10 mi
5:56 am70 °FPassing clouds.8 mph90%29.69 "Hg10 mi
5:30 am69 °FPartly cloudy.7 mph90%29.69 "Hg8 mi
4:56 am69 °FThunderstorms. Partly cloudy.5 mph90%29.69 "Hg8 mi
4:02 am69 °FThunderstorms. Fog.10 mph87%29.71 "Hg3 mi
3:12 am74 °FThunderstorms. Partly cloudy.20 mph82%29.70 "Hg10 mi
2:56 am73 °FThunderstorms. Passing clouds.17 mph84%29.70 "Hg10 mi
1:56 am73 °FPartly cloudy.16 mph84%29.73 "Hg10 mi
12:56 am73 °FPassing clouds.13 mph84%29.76 "Hg10 mi
11:56 pm
Sun, Apr 23
73 °FPassing clouds.13 mph81%29.78 "Hg10 mi
10:56 pm73 °FPassing clouds.14 mph81%29.80 "Hg10 mi
9:56 pm73 °FPassing clouds.14 mph81%29.79 "Hg10 mi
8:56 pm74 °FPassing clouds.13 mph82%29.79 "Hg10 mi
7:56 pm75 °FPartly cloudy.14 mph74%29.78 "Hg10 mi
Weather by CustomWeather, © 2017

See weather overviewHow to use our weather pages